Location: Albany
(35.0000°S, 118.0000°E)
Time: 17:05:33
(UTC-04:00)

SJ-6B - Visible Passes

Search period start: 23 April 2014 00:00
Search period end: 03 May 2014 00:00
Orbit: 519 x 603 km, 97.8° (Epoch: 23 April)

Date Brightness Start Highest point End Pass type
(mag) Time Alt. Az. Time Alt. Az. Time Alt. Az.
23 Apr 4.4 06:38:59 10° S 06:42:51 39° WSW 06:46:34 10° NW visible
23 Apr 3.2 17:21:10 10° NNE 17:25:23 75° ESE 17:29:41 10° S visible
24 Apr 4.3 06:38:04 10° S 06:41:56 40° WSW 06:45:40 10° NW visible
24 Apr 3.2 17:20:15 10° NNE 17:24:28 73° ESE 17:28:46 10° S visible
25 Apr 4.2 06:37:08 10° S 06:41:00 41° WSW 06:44:44 10° NW visible
25 Apr 3.3 17:19:20 10° NNE 17:23:33 71° ESE 17:27:51 10° S visible
26 Apr 4.1 06:36:12 10° S 06:40:04 43° WSW 06:43:48 10° NW visible
26 Apr 3.3 17:18:24 10° NNE 17:22:37 69° ESE 17:26:54 10° S visible
27 Apr 4.1 06:35:14 10° S 06:39:07 44° WSW 06:42:52 10° NW visible
27 Apr 3.4 17:17:28 10° NNE 17:21:40 67° ESE 17:25:57 10° S visible
28 Apr 4.0 06:34:17 10° S 06:38:10 45° WSW 06:41:54 10° NNW visible
28 Apr 3.4 17:16:31 10° NNE 17:20:43 65° ESE 17:24:59 10° S visible
29 Apr 3.9 06:33:19 10° S 06:37:12 46° WSW 06:40:57 10° NNW visible
29 Apr 3.5 17:15:34 10° NNE 17:19:46 63° ESE 17:24:01 10° S visible
30 Apr 3.9 06:32:20 10° S 06:36:14 48° WSW 06:39:58 10° NNW visible
30 Apr 3.5 17:14:36 10° NNE 17:18:48 61° ESE 17:23:02 10° S visible
01 May 3.8 06:31:21 10° S 06:35:14 49° WSW 06:38:59 10° NNW visible
01 May 3.6 17:13:38 10° NNE 17:17:49 59° ESE 17:22:03 10° S visible
02 May 3.7 06:30:21 10° S 06:34:14 51° WSW 06:37:59 10° NNW visible
02 May 3.6 17:12:39 10° NNE 17:16:50 57° ESE 17:21:02 10° S visible
